Time,TemperatureF,DewpointF,PressureIn,WindDirection,WindDirectionDegrees,WindSpeedMPH,WindSpeedGustMPH,Humidity,HourlyPrecipIn,Conditions,Clouds,dailyrainin,SoftwareType,DateUTC
2013-06-12 00:01:00,67.6,56.3,29.00,ENE,74,0.0,0.0,67,0.00,,SKC,0.00,VWS V14.01,2013-06-12 05:01:00,
2013-06-12 00:06:00,67.8,56.5,29.00,SE,140,2.2,2.2,67,0.00,,SKC,0.00,VWS V14.01,2013-06-12 05:06:00,
2013-06-12 00:11:00,67.6,56.3,29.00,SE,140,0.0,0.0,67,0.00,,SKC,0.00,VWS V14.01,2013-06-12 05:11:00,
2013-06-12 00:16:00,67.6,56.3,28.97,SE,140,0.0,0.0,67,0.00,,SKC,0.00,VWS V14.01,2013-06-12 05:16:00,
2013-06-12 00:21:00,67.6,56.7,28.97,SE,140,0.0,0.0,68,0.00,,SKC,0.00,VWS V14.01,2013-06-12 05:21:00,
2013-06-12 00:26:00,67.6,56.7,28.97,SE,140,0.0,0.0,68,0.00,,SKC,0.00,VWS V14.01,2013-06-12 05:26:00,
2013-06-12 00:31:00,67.8,56.9,29.00,SE,140,0.0,0.0,68,0.00,,SKC,0.00,VWS V14.01,2013-06-12 05:31:00,
2013-06-12 00:36:00,67.8,56.9,29.00,SE,140,0.0,0.0,68,0.00,,SKC,0.00,VWS V14.01,2013-06-12 05:36:00,
2013-06-12 00:41:00,67.8,56.5,29.00,SE,140,0.0,0.0,67,0.00,,SKC,0.00,VWS V14.01,2013-06-12 05:41:00,
2013-06-12 00:46:00,67.8,56.5,29.00,SE,140,0.0,0.0,67,0.00,,SKC,0.00,VWS V14.01,2013-06-12 05:46:00,
2013-06-12 00:51:00,67.8,56.9,29.00,SE,140,0.0,0.0,68,0.00,,SKC,0.00,VWS V14.01,2013-06-12 05:51:00,
2013-06-12 00:56:00,67.8,56.5,29.00,SE,140,0.0,0.0,67,0.00,,SKC,0.00,VWS V14.01,2013-06-12 05:56:00,
2013-06-12 01:01:00,67.8,56.5,29.00,SE,140,0.0,0.0,67,0.00,,SKC,0.00,VWS V14.01,2013-06-12 06:01:00,
2013-06-12 01:06:00,67.8,56.5,29.00,SE,140,0.0,0.0,67,0.00,,SKC,0.00,VWS V14.01,2013-06-12 06:06:00,
2013-06-12 01:11:00,67.6,56.3,29.00,SE,140,0.0,0.0,67,0.00,,SKC,0.00,VWS V14.01,2013-06-12 06:11:00,
2013-06-12 01:16:00,67.6,56.3,29.00,SE,140,0.0,0.0,67,0.00,,SKC,0.00,VWS V14.01,2013-06-12 06:16:00,
2013-06-12 01:21:00,67.3,56.8,29.00,SE,140,2.2,2.2,69,0.00,,SKC,0.00,VWS V14.01,2013-06-12 06:21:00,
2013-06-12 01:26:00,67.3,57.2,29.00,SE,140,0.0,0.0,70,0.00,,SKC,0.00,VWS V14.01,2013-06-12 06:26:00,
2013-06-12 01:31:00,67.1,57.8,29.00,SE,140,0.0,0.0,72,0.00,,SKC,0.00,VWS V14.01,2013-06-12 06:31:00,
2013-06-12 01:36:00,67.1,58.2,29.00,SE,140,0.0,0.0,73,0.00,,SKC,0.00,VWS V14.01,2013-06-12 06:36:00,
2013-06-12 01:41:00,67.1,58.9,29.00,SSE,165,2.7,3.1,75,0.00,,SKC,0.00,VWS V14.01,2013-06-12 06:41:00,
2013-06-12 01:46:00,66.9,59.1,29.00,SSE,165,0.0,0.0,76,0.00,,SKC,0.00,VWS V14.01,2013-06-12 06:46:00,
2013-06-12 01:51:00,67.1,59.3,29.00,SSE,165,3.1,3.1,76,0.00,,SKC,0.00,VWS V14.01,2013-06-12 06:51:00,
2013-06-12 01:56:00,66.9,59.1,29.00,SSE,165,0.0,0.0,76,0.00,,SKC,0.00,VWS V14.01,2013-06-12 06:56:00,
2013-06-12 02:01:00,66.9,59.1,29.03,SSE,165,0.0,0.0,76,0.00,,SKC,0.00,VWS V14.01,2013-06-12 07:01:00,
2013-06-12 02:06:00,66.9,59.1,29.03,SSE,165,2.2,2.2,76,0.00,,SKC,0.00,VWS V14.01,2013-06-12 07:06:00,
2013-06-12 02:11:00,66.9,59.5,29.03,SSE,165,0.0,0.0,77,0.00,,SKC,0.00,VWS V14.01,2013-06-12 07:11:00,
2013-06-12 02:16:00,67.1,60.0,29.03,SSE,165,0.0,0.0,78,0.00,,SKC,0.00,VWS V14.01,2013-06-12 07:16:00,
2013-06-12 02:21:00,66.9,59.8,29.03,SSE,165,0.0,0.0,78,0.00,,SKC,0.00,VWS V14.01,2013-06-12 07:21:00,
2013-06-12 02:26:00,66.9,59.8,29.03,SSE,165,3.6,4.0,78,0.00,,SKC,0.00,VWS V14.01,2013-06-12 07:26:00,
2013-06-12 02:31:00,66.7,59.7,29.03,SSE,165,2.7,2.7,78,0.00,,SKC,0.00,VWS V14.01,2013-06-12 07:31:00,
2013-06-12 02:36:00,66.7,60.0,29.03,SSE,165,3.1,3.1,79,0.00,,SKC,0.00,VWS V14.01,2013-06-12 07:36:00,
2013-06-12 02:41:00,66.7,60.0,29.03,SSE,165,2.7,3.1,79,0.00,,SKC,0.00,VWS V14.01,2013-06-12 07:41:00,
2013-06-12 02:45:00,66.7,60.4,29.03,SSE,165,3.6,3.6,80,0.00,,SKC,0.00,VWS V14.01,2013-06-12 07:45:00,
2013-06-12 02:50:00,66.6,60.2,29.03,SSE,165,2.7,3.6,80,0.00,,SKC,0.00,VWS V14.01,2013-06-12 07:50:00,
2013-06-12 02:55:00,66.6,60.6,29.03,SSE,165,3.1,3.1,81,0.00,,SKC,0.00,VWS V14.01,2013-06-12 07:55:00,
2013-06-12 03:00:00,66.6,60.6,29.03,SSE,165,3.1,3.1,81,0.00,,SKC,0.00,VWS V14.01,2013-06-12 08:00:00,
2013-06-12 03:05:00,66.6,60.9,29.03,SSE,165,3.1,3.6,82,0.00,,SKC,0.00,VWS V14.01,2013-06-12 08:05:00,
2013-06-12 03:10:00,66.6,60.9,29.03,SSE,165,3.1,3.1,82,0.00,,SKC,0.00,VWS V14.01,2013-06-12 08:10:00,
2013-06-12 03:15:00,66.6,60.9,29.03,SSE,165,3.1,3.6,82,0.00,,SKC,0.00,VWS V14.01,2013-06-12 08:15:00,
2013-06-12 03:20:00,66.4,60.4,29.03,SSE,165,3.6,3.6,81,0.00,,SKC,0.00,VWS V14.01,2013-06-12 08:20:00,
2013-06-12 03:25:00,66.4,60.7,29.03,SSE,165,3.6,4.0,82,0.00,,SKC,0.00,VWS V14.01,2013-06-12 08:25:00,
2013-06-12 03:30:00,66.4,60.7,29.03,SSE,164,2.7,3.6,82,0.00,,SKC,0.00,VWS V14.01,2013-06-12 08:30:00,
2013-06-12 03:35:00,66.4,60.7,29.03,SSE,164,2.7,2.7,82,0.00,,SKC,0.00,VWS V14.01,2013-06-12 08:35:00,
2013-06-12 03:40:00,66.6,61.2,29.03,SSE,164,2.7,3.1,83,0.00,,SKC,0.00,VWS V14.01,2013-06-12 08:40:00,
2013-06-12 03:45:00,66.4,61.1,29.03,SSE,164,2.7,2.7,83,0.00,,SKC,0.00,VWS V14.01,2013-06-12 08:45:00,
2013-06-12 03:50:00,66.4,60.7,29.03,SSE,164,2.7,3.1,82,0.00,,SKC,0.00,VWS V14.01,2013-06-12 08:50:00,
2013-06-12 03:55:00,66.2,60.5,29.03,SSE,164,2.7,3.1,82,0.00,,SKC,0.00,VWS V14.01,2013-06-12 08:55:00,
2013-06-12 04:00:00,66.2,60.5,29.00,SSE,164,3.1,3.1,82,0.00,,SKC,0.00,VWS V14.01,2013-06-12 09:00:00,
2013-06-12 04:05:00,66.0,60.7,29.00,SSE,164,3.6,3.6,83,0.00,,SKC,0.00,VWS V14.01,2013-06-12 09:05:00,
2013-06-12 04:10:00,66.0,60.7,29.00,SSE,164,2.7,3.1,83,0.00,,SKC,0.00,VWS V14.01,2013-06-12 09:10:00,
2013-06-12 04:15:00,66.2,61.2,28.97,SSE,165,3.1,3.1,84,0.00,,SKC,0.00,VWS V14.01,2013-06-12 09:15:00,
2013-06-12 04:20:00,65.8,60.9,28.97,SSE,164,3.6,4.0,84,0.00,,SKC,0.00,VWS V14.01,2013-06-12 09:20:00,
2013-06-12 04:25:00,65.8,60.9,28.97,South,169,4.0,4.0,84,0.00,,SKC,0.00,VWS V14.01,2013-06-12 09:25:00,
2013-06-12 04:30:00,65.8,61.2,29.00,SSE,167,2.2,4.0,85,0.00,,SKC,0.00,VWS V14.01,2013-06-12 09:30:00,
2013-06-12 04:35:00,66.0,61.7,29.00,SSE,163,3.1,3.6,86,0.00,,SKC,0.00,VWS V14.01,2013-06-12 09:35:00,
2013-06-12 04:40:00,66.0,62.0,29.00,SSE,162,2.2,2.7,87,0.00,,SKC,0.00,VWS V14.01,2013-06-12 09:40:00,
2013-06-12 04:45:00,66.2,62.2,29.00,SSE,162,2.7,2.7,87,0.00,,SKC,0.00,VWS V14.01,2013-06-12 09:45:00,
2013-06-12 04:50:00,66.2,62.5,29.00,SSE,162,4.0,4.0,88,0.00,,SKC,0.00,VWS V14.01,2013-06-12 09:50:00,
2013-06-12 04:55:00,66.0,62.4,29.00,SSE,163,2.7,2.7,88,0.00,,SKC,0.00,VWS V14.01,2013-06-12 09:55:00,
2013-06-12 05:00:00,66.2,62.5,29.00,SSE,163,3.1,3.6,88,0.00,,SKC,0.00,VWS V14.01,2013-06-12 10:00:00,
2013-06-12 05:05:00,66.2,62.9,29.00,SSE,163,3.1,3.6,89,0.00,,SKC,0.00,VWS V14.01,2013-06-12 10:05:00,
2013-06-12 05:10:00,66.2,62.9,29.00,SSE,163,2.2,3.6,89,0.00,,SKC,0.00,VWS V14.01,2013-06-12 10:10:00,
2013-06-12 05:15:00,66.2,63.2,29.00,SSE,162,3.1,3.6,90,0.00,,SKC,0.00,VWS V14.01,2013-06-12 10:15:00,
2013-06-12 05:20:00,66.4,63.7,29.00,SSE,161,3.6,3.6,91,0.00,,SKC,0.00,VWS V14.01,2013-06-12 10:20:00,
2013-06-12 05:25:00,66.4,63.7,29.00,SSE,159,2.2,3.1,91,0.00,,SKC,0.00,VWS V14.01,2013-06-12 10:25:00,
2013-06-12 05:30:00,66.2,63.5,29.00,SSE,160,2.7,3.1,91,0.00,,SKC,0.00,VWS V14.01,2013-06-12 10:30:00,
2013-06-12 05:35:00,66.2,63.2,29.00,SSE,160,2.7,3.1,90,0.00,,SKC,0.00,VWS V14.01,2013-06-12 10:35:00,
2013-06-12 05:40:00,66.2,63.2,29.00,SSE,160,3.1,4.5,90,0.00,,SKC,0.00,VWS V14.01,2013-06-12 10:40:00,
2013-06-12 05:45:00,66.2,63.2,29.00,SSE,160,4.0,4.0,90,0.00,,SKC,0.00,VWS V14.01,2013-06-12 10:45:00,
2013-06-12 05:50:00,66.2,63.2,29.00,South,170,3.1,3.6,90,0.00,,SKC,0.00,VWS V14.01,2013-06-12 10:50:00,
2013-06-12 05:55:00,66.0,62.7,29.00,South,170,3.1,3.6,89,0.00,,SKC,0.00,VWS V14.01,2013-06-12 10:55:00,
2013-06-12 06:00:00,66.2,62.9,29.03,South,170,3.6,3.6,89,0.00,,SKC,0.00,VWS V14.01,2013-06-12 11:00:00,
2013-06-12 06:05:00,66.4,63.0,29.03,South,173,2.7,3.1,89,0.00,,SKC,0.00,VWS V14.01,2013-06-12 11:05:00,
2013-06-12 06:10:00,66.6,63.5,29.03,South,173,0.0,2.2,90,0.00,,SKC,0.00,VWS V14.01,2013-06-12 11:10:00,
2013-06-12 06:15:00,66.7,63.7,29.00,South,172,0.0,0.0,90,0.00,,SKC,0.00,VWS V14.01,2013-06-12 11:15:00,
2013-06-12 06:20:00,66.9,63.9,29.00,South,173,2.2,2.2,90,0.00,,SKC,0.00,VWS V14.01,2013-06-12 11:20:00,
2013-06-12 06:25:00,66.7,63.7,29.00,South,172,2.2,2.7,90,0.00,,SKC,0.00,VWS V14.01,2013-06-12 11:25:00,
2013-06-12 06:30:00,66.9,63.9,29.03,South,173,2.7,3.1,90,0.00,,SKC,0.00,VWS V14.01,2013-06-12 11:30:00,
2013-06-12 06:35:00,66.9,63.6,29.03,South,173,2.7,3.1,89,0.00,,SKC,0.00,VWS V14.01,2013-06-12 11:35:00,
2013-06-12 06:40:00,67.1,63.8,29.03,South,173,2.7,3.6,89,0.00,,SKC,0.00,VWS V14.01,2013-06-12 11:40:00,
2013-06-12 06:45:00,67.5,64.4,29.03,South,173,0.0,0.0,90,0.00,,SKC,0.00,VWS V14.01,2013-06-12 11:45:00,
2013-06-12 06:50:00,67.6,64.6,29.03,North,5,3.6,6.3,90,0.00,,SKC,0.00,VWS V14.01,2013-06-12 11:50:00,
2013-06-12 06:55:00,67.5,64.1,29.03,North,9,3.6,7.6,89,0.00,,SKC,0.00,VWS V14.01,2013-06-12 11:55:00,
2013-06-12 07:00:00,67.5,64.1,29.06,NNE,30,3.6,3.6,89,0.00,,SKC,0.00,VWS V14.01,2013-06-12 12:00:00,
2013-06-12 07:05:00,67.5,64.1,29.06,East,87,0.0,0.0,89,0.00,,SKC,0.00,VWS V14.01,2013-06-12 12:05:00,
2013-06-12 07:10:00,67.3,63.6,29.06,East,87,0.0,0.0,88,0.00,,SKC,0.00,VWS V14.01,2013-06-12 12:10:00,
2013-06-12 07:15:00,67.1,63.1,29.03,East,87,0.0,2.2,87,0.00,,SKC,0.00,VWS V14.01,2013-06-12 12:15:00,
2013-06-12 07:20:00,67.3,62.6,29.03,East,87,0.0,0.0,85,0.00,,SKC,0.00,VWS V14.01,2013-06-12 12:20:00,
2013-06-12 07:25:00,67.1,61.1,29.03,East,87,2.2,3.1,81,0.00,,SKC,0.00,VWS V14.01,2013-06-12 12:25:00,
2013-06-12 07:30:00,67.6,61.3,29.06,East,87,0.0,0.0,80,0.00,,SKC,0.00,VWS V14.01,2013-06-12 12:30:00,
2013-06-12 07:35:00,67.8,61.4,29.06,East,87,0.0,0.0,80,0.00,,SKC,0.00,VWS V14.01,2013-06-12 12:35:00,
2013-06-12 07:40:00,68.0,60.9,29.06,East,87,0.0,0.0,78,0.00,,SKC,0.00,VWS V14.01,2013-06-12 12:40:00,
2013-06-12 07:45:00,68.2,61.1,29.03,East,87,0.0,0.0,78,0.00,,SKC,0.00,VWS V14.01,2013-06-12 12:45:00,
2013-06-12 07:50:00,68.2,60.7,29.03,East,87,0.0,0.0,77,0.00,,SKC,0.00,VWS V14.01,2013-06-12 12:50:00,
2013-06-12 07:55:00,68.4,60.9,29.03,East,87,0.0,0.0,77,0.00,,SKC,0.00,VWS V14.01,2013-06-12 12:55:00,
2013-06-12 08:00:00,68.4,59.0,29.06,East,89,2.7,2.7,72,0.00,,SKC,0.00,VWS V14.01,2013-06-12 13:00:00,
2013-06-12 08:05:00,68.4,58.2,29.06,East,89,2.7,3.1,70,0.00,,SKC,0.00,VWS V14.01,2013-06-12 13:05:00,
2013-06-12 08:10:00,68.5,58.0,29.06,East,89,2.7,2.7,69,0.00,,SKC,0.00,VWS V14.01,2013-06-12 13:10:00,
2013-06-12 08:15:00,68.7,53.8,29.06,SSE,167,0.0,2.2,59,0.00,,SKC,0.00,VWS V14.01,2013-06-12 13:15:00,
2013-06-12 08:20:00,68.9,54.0,29.06,SSE,167,0.0,0.0,59,0.00,,SKC,0.00,VWS V14.01,2013-06-12 13:20:00,
2013-06-12 08:25:00,69.1,54.2,29.06,SSE,167,0.0,0.0,59,0.00,,SKC,0.00,VWS V14.01,2013-06-12 13:25:00,
2013-06-12 08:30:00,69.1,55.1,29.06,SSE,167,0.0,0.0,61,0.00,,SKC,0.00,VWS V14.01,2013-06-12 13:30:00,
2013-06-12 08:35:00,69.1,56.0,29.06,SSE,167,0.0,0.0,63,0.00,,SKC,0.00,VWS V14.01,2013-06-12 13:35:00,
2013-06-12 08:40:00,69.4,56.8,29.06,North,10,0.0,5.4,64,0.00,,SKC,0.00,VWS V14.01,2013-06-12 13:40:00,
2013-06-12 08:45:00,69.6,53.7,29.06,North,6,0.0,0.0,57,0.00,,SKC,0.00,VWS V14.01,2013-06-12 13:45:00,
2013-06-12 08:50:00,70.0,49.4,29.06,NNE,25,0.0,0.0,48,0.00,,SKC,0.00,VWS V14.01,2013-06-12 13:50:00,
2013-06-12 08:55:00,69.8,47.5,29.06,NNW,334,0.0,0.0,45,0.00,,SKC,0.00,VWS V14.01,2013-06-12 13:55:00,
2013-06-12 09:00:00,70.2,48.4,29.06,NNW,334,0.0,0.0,46,0.00,,SKC,0.00,VWS V14.01,2013-06-12 14:00:00,
2013-06-12 09:05:00,69.8,45.7,29.06,NNW,334,0.0,0.0,42,0.00,,SKC,0.00,VWS V14.01,2013-06-12 14:05:00,
2013-06-12 09:10:00,69.4,47.8,29.06,NNW,334,0.0,0.0,46,0.00,,SKC,0.00,VWS V14.01,2013-06-12 14:10:00,
2013-06-12 09:15:00,70.0,50.0,29.03,NNW,334,2.2,2.2,49,0.00,,SKC,0.00,VWS V14.01,2013-06-12 14:15:00,
2013-06-12 09:20:00,70.3,52.4,29.03,NNW,334,0.0,0.0,53,0.00,,SKC,0.00,VWS V14.01,2013-06-12 14:20:00,
2013-06-12 09:25:00,70.5,53.6,29.03,NNW,334,0.0,0.0,55,0.00,,SKC,0.00,VWS V14.01,2013-06-12 14:25:00,
2013-06-12 09:30:00,70.9,53.9,29.03,NNW,334,0.0,0.0,55,0.00,,SKC,0.00,VWS V14.01,2013-06-12 14:30:00,
2013-06-12 09:35:00,71.2,52.7,29.03,NNW,334,0.0,0.0,52,0.00,,SKC,0.00,VWS V14.01,2013-06-12 14:35:00,
2013-06-12 09:40:00,71.6,53.1,29.03,SSE,162,0.0,0.0,52,0.00,,SKC,0.00,VWS V14.01,2013-06-12 14:40:00,
2013-06-12 09:45:00,71.8,52.2,29.00,South,188,0.0,0.0,50,0.00,,SKC,0.00,VWS V14.01,2013-06-12 14:45:00,
2013-06-12 09:50:00,72.3,52.7,29.00,South,187,0.0,0.0,50,0.00,,SKC,0.00,VWS V14.01,2013-06-12 14:50:00,
2013-06-12 09:55:00,72.5,51.7,29.00,South,172,2.2,2.7,48,0.00,,SKC,0.00,VWS V14.01,2013-06-12 14:55:00,
2013-06-12 10:00:00,72.7,52.4,29.03,SSE,164,2.2,2.7,49,0.00,,SKC,0.00,VWS V14.01,2013-06-12 15:00:00,
2013-06-12 10:05:00,72.9,52.0,29.03,South,175,0.0,0.0,48,0.00,,SKC,0.00,VWS V14.01,2013-06-12 15:05:00,
2013-06-12 10:10:00,72.9,52.0,29.03,SW,236,0.0,0.0,48,0.00,,SKC,0.00,VWS V14.01,2013-06-12 15:10:00,
2013-06-12 10:15:00,73.2,51.8,29.03,SSE,163,0.0,0.0,47,0.00,,SKC,0.00,VWS V14.01,2013-06-12 15:15:00,
2013-06-12 10:20:00,73.6,51.5,29.03,SSE,163,0.0,0.0,46,0.00,,SKC,0.00,VWS V14.01,2013-06-12 15:20:00,
2013-06-12 10:25:00,73.9,51.9,29.03,South,172,0.0,2.2,46,0.00,,SKC,0.00,VWS V14.01,2013-06-12 15:25:00,
2013-06-12 10:30:00,74.5,51.8,29.03,South,175,2.7,2.7,45,0.00,,SKC,0.00,VWS V14.01,2013-06-12 15:30:00,
2013-06-12 10:35:00,74.3,47.8,29.03,South,175,3.6,3.6,39,0.00,,SKC,0.00,VWS V14.01,2013-06-12 15:35:00,
2013-06-12 10:40:00,74.7,46.7,29.03,South,175,2.7,4.0,37,0.00,,SKC,0.00,VWS V14.01,2013-06-12 15:40:00,
2013-06-12 10:45:00,74.8,49.6,29.00,SSE,164,2.7,3.1,41,0.00,,SKC,0.00,VWS V14.01,2013-06-12 15:45:00,
2013-06-12 10:50:00,74.7,48.1,29.00,South,175,2.7,2.7,39,0.00,,SKC,0.00,VWS V14.01,2013-06-12 15:50:00,
2013-06-12 10:55:00,74.8,49.6,29.00,SSE,155,3.6,3.6,41,0.00,,SKC,0.00,VWS V14.01,2013-06-12 15:55:00,
2013-06-12 11:00:00,74.8,48.2,29.00,SE,146,0.0,3.1,39,0.00,,SKC,0.00,VWS V14.01,2013-06-12 16:00:00,
2013-06-12 11:05:00,74.8,49.6,29.00,SSE,158,0.0,0.0,41,0.00,,SKC,0.00,VWS V14.01,2013-06-12 16:05:00,
2013-06-12 11:10:00,75.0,48.4,29.00,South,169,2.7,3.1,39,0.00,,SKC,0.00,VWS V14.01,2013-06-12 16:10:00,
2013-06-12 11:15:00,75.2,49.9,28.97,South,178,0.0,3.1,41,0.00,,SKC,0.00,VWS V14.01,2013-06-12 16:15:00,
2013-06-12 11:20:00,75.2,49.2,28.97,SSE,164,0.0,0.0,40,0.00,,SKC,0.00,VWS V14.01,2013-06-12 16:20:00,
2013-06-12 11:25:00,75.4,49.4,28.97,South,169,2.2,3.6,40,0.00,,SKC,0.00,VWS V14.01,2013-06-12 16:25:00,
2013-06-12 11:30:00,75.6,48.2,28.97,SSE,164,2.2,2.2,38,0.00,,SKC,0.00,VWS V14.01,2013-06-12 16:30:00,
2013-06-12 11:35:00,76.1,48.7,28.97,SSE,155,3.1,3.1,38,0.00,,SKC,0.00,VWS V14.01,2013-06-12 16:35:00,
2013-06-12 11:40:00,76.5,48.3,28.97,SSE,155,4.9,5.4,37,0.00,,SKC,0.00,VWS V14.01,2013-06-12 16:40:00,
2013-06-12 11:45:00,76.6,47.7,28.91,South,178,6.3,6.3,36,0.00,,SKC,0.00,VWS V14.01,2013-06-12 16:45:00,
2013-06-12 11:50:00,76.8,47.1,28.91,SSE,150,5.4,5.4,35,0.00,,SKC,0.00,VWS V14.01,2013-06-12 16:50:00,
2013-06-12 11:55:00,77.0,47.3,28.91,SSE,163,3.6,3.6,35,0.00,,SKC,0.00,VWS V14.01,2013-06-12 16:55:00,
2013-06-12 12:00:00,77.4,47.6,28.91,South,172,0.0,0.0,35,0.00,,SKC,0.00,VWS V14.01,2013-06-12 17:00:00,
2013-06-12 12:05:00,77.5,47.8,28.91,SSE,161,0.0,0.0,35,0.00,,SKC,0.00,VWS V14.01,2013-06-12 17:05:00,
2013-06-12 12:10:00,77.4,47.6,28.91,SSE,166,2.7,4.9,35,0.00,,SKC,0.00,VWS V14.01,2013-06-12 17:10:00,
2013-06-12 12:15:00,77.4,48.3,28.91,SSE,154,5.4,5.8,36,0.00,,SKC,0.00,VWS V14.01,2013-06-12 17:15:00,
2013-06-12 12:20:00,77.4,50.5,28.91,SSE,164,3.1,3.6,39,0.00,,SKC,0.00,VWS V14.01,2013-06-12 17:20:00,
2013-06-12 12:25:00,77.0,49.5,28.91,SE,136,5.8,5.8,38,0.00,,SKC,0.00,VWS V14.01,2013-06-12 17:25:00,
2013-06-12 12:30:00,77.2,48.9,28.88,South,187,3.6,4.0,37,0.00,,SKC,0.00,VWS V14.01,2013-06-12 17:30:00,
2013-06-12 12:35:00,77.0,51.5,28.88,SSE,162,2.7,2.7,41,0.00,,SKC,0.00,VWS V14.01,2013-06-12 17:35:00,
2013-06-12 12:40:00,77.0,50.9,28.88,South,188,5.4,5.4,40,0.00,,SKC,0.00,VWS V14.01,2013-06-12 17:40:00,
2013-06-12 12:45:00,77.4,51.2,28.88,SSE,153,3.6,3.6,40,0.00,,SKC,0.00,VWS V14.01,2013-06-12 17:45:00,
2013-06-12 12:50:00,77.5,50.7,28.88,SE,143,4.0,4.9,39,0.00,,SKC,0.00,VWS V14.01,2013-06-12 17:50:00,
2013-06-12 12:55:00,77.9,51.7,28.88,South,177,3.6,3.6,40,0.00,,SKC,0.00,VWS V14.01,2013-06-12 17:55:00,
2013-06-12 13:00:00,78.3,52.0,28.91,SSE,153,2.2,2.2,40,0.00,,SKC,0.00,VWS V14.01,2013-06-12 18:00:00,
2013-06-12 13:05:00,78.4,52.1,28.91,South,180,4.0,4.0,40,0.00,,SKC,0.00,VWS V14.01,2013-06-12 18:05:00,
2013-06-12 13:10:00,78.4,52.1,28.91,South,172,3.1,3.6,40,0.00,,SKC,0.00,VWS V14.01,2013-06-12 18:10:00,
2013-06-12 13:15:00,79.0,51.9,28.88,SSE,162,5.8,5.8,39,0.00,,SKC,0.00,VWS V14.01,2013-06-12 18:15:00,
2013-06-12 13:20:00,79.9,52.0,28.88,SSE,163,2.2,2.2,38,0.00,,SKC,0.00,VWS V14.01,2013-06-12 18:20:00,
2013-06-12 13:25:00,80.4,50.3,28.88,SSE,160,0.0,0.0,35,0.00,,SKC,0.00,VWS V14.01,2013-06-12 18:25:00,
2013-06-12 13:30:00,81.1,49.3,28.91,SSW,206,2.7,2.7,33,0.00,,SKC,0.00,VWS V14.01,2013-06-12 18:30:00,
2013-06-12 13:35:00,81.5,50.5,28.91,South,176,2.2,2.2,34,0.00,,SKC,0.00,VWS V14.01,2013-06-12 18:35:00,
2013-06-12 13:40:00,82.2,51.1,28.91,SW,217,0.0,0.0,34,0.00,,SKC,0.00,VWS V14.01,2013-06-12 18:40:00,
2013-06-12 13:45:00,82.6,48.9,28.91,SSE,168,0.0,0.0,31,0.00,,SKC,0.00,VWS V14.01,2013-06-12 18:45:00,
2013-06-12 13:50:00,82.8,49.1,28.91,SSE,168,2.2,2.2,31,0.00,,SKC,0.00,VWS V14.01,2013-06-12 18:50:00,
2013-06-12 13:55:00,83.5,48.8,28.91,SSW,201,0.0,2.2,30,0.00,,SKC,0.00,VWS V14.01,2013-06-12 18:55:00,
2013-06-12 14:00:00,84.0,48.4,28.94,NW,304,2.2,2.7,29,0.00,,SKC,0.00,VWS V14.01,2013-06-12 19:00:00,
2013-06-12 14:05:00,84.7,45.1,28.94,NE,35,2.7,2.7,25,0.00,,SKC,0.00,VWS V14.01,2013-06-12 19:05:00,
2013-06-12 14:10:00,85.3,41.0,28.94,North,352,3.1,3.6,21,0.00,,SKC,0.00,VWS V14.01,2013-06-12 19:10:00,
2013-06-12 14:15:00,84.7,38.0,28.94,NE,37,3.6,3.6,19,0.00,,SKC,0.00,VWS V14.01,2013-06-12 19:15:00,
2013-06-12 14:20:00,83.5,39.5,28.94,NNE,17,8.1,8.3,21,0.00,,SKC,0.00,VWS V14.01,2013-06-12 19:20:00,
2013-06-12 14:25:00,80.8,36.0,28.94,NE,38,3.1,3.6,20,0.00,,SKC,0.00,VWS V14.01,2013-06-12 19:25:00,
2013-06-12 14:30:00,79.9,36.5,28.94,North,5,2.7,2.7,21,0.00,,SKC,0.00,VWS V14.01,2013-06-12 19:30:00,
2013-06-12 14:35:00,79.3,40.5,28.94,NNE,32,5.8,5.8,25,0.00,,SKC,0.00,VWS V14.01,2013-06-12 19:35:00,
2013-06-12 14:39:00,79.5,40.7,28.94,ENE,58,2.2,3.6,25,0.00,,SKC,0.00,VWS V14.01,2013-06-12 19:39:00,
2013-06-12 14:44:00,80.1,41.1,28.94,NE,37,4.0,4.0,25,0.00,,SKC,0.00,VWS V14.01,2013-06-12 19:44:00,
2013-06-12 14:49:00,79.7,39.8,28.94,NNE,13,2.7,3.6,24,0.00,,SKC,0.00,VWS V14.01,2013-06-12 19:49:00,
2013-06-12 14:54:00,78.8,37.9,28.94,NNE,14,3.1,5.8,23,0.00,,SKC,0.00,VWS V14.01,2013-06-12 19:54:00,
2013-06-12 14:59:00,77.9,38.2,28.94,NNE,32,3.1,3.6,24,0.00,,SKC,0.00,VWS V14.01,2013-06-12 19:59:00,
2013-06-12 15:04:00,77.9,40.3,28.94,NNE,22,3.6,4.9,26,0.00,,SKC,0.00,VWS V14.01,2013-06-12 20:04:00,
2013-06-12 15:09:00,78.1,38.4,28.94,NE,37,0.0,2.7,24,0.00,,SKC,0.00,VWS V14.01,2013-06-12 20:09:00,
2013-06-12 15:14:00,77.9,39.3,28.94,NNW,342,0.0,0.0,25,0.00,,SKC,0.00,VWS V14.01,2013-06-12 20:14:00,
2013-06-12 15:19:00,78.4,41.7,28.94,North,10,0.0,3.1,27,0.00,,SKC,0.00,VWS V14.01,2013-06-12 20:19:00,
2013-06-12 15:24:00,79.3,45.2,28.94,NE,45,0.0,0.0,30,0.00,,SKC,0.00,VWS V14.01,2013-06-12 20:24:00,
2013-06-12 15:29:00,80.1,45.9,28.94,ENE,58,0.0,0.0,30,0.00,,SKC,0.00,VWS V14.01,2013-06-12 20:29:00,
2013-06-12 15:34:00,81.0,45.8,28.94,East,100,0.0,0.0,29,0.00,,SKC,0.00,VWS V14.01,2013-06-12 20:34:00,
2013-06-12 15:39:00,81.3,42.2,28.94,East,84,0.0,2.7,25,0.00,,SKC,0.00,VWS V14.01,2013-06-12 20:39:00,
2013-06-12 15:44:00,80.8,39.6,28.91,ESE,120,0.0,0.0,23,0.00,,SKC,0.00,VWS V14.01,2013-06-12 20:44:00,
2013-06-12 15:49:00,80.2,41.3,28.91,East,96,0.0,0.0,25,0.00,,SKC,0.00,VWS V14.01,2013-06-12 20:49:00,
2013-06-12 15:54:00,80.2,43.3,28.91,NNE,33,0.0,2.2,27,0.00,,SKC,0.00,VWS V14.01,2013-06-12 20:54:00,
2013-06-12 15:59:00,80.4,45.3,28.91,ENE,64,3.6,3.6,29,0.00,,SKC,0.00,VWS V14.01,2013-06-12 20:59:00,
2013-06-12 16:04:00,80.6,45.4,28.91,East,82,2.2,3.1,29,0.00,,SKC,0.00,VWS V14.01,2013-06-12 21:04:00,
2013-06-12 16:09:00,80.8,43.7,28.91,ENE,59,0.0,0.0,27,0.00,,SKC,0.00,VWS V14.01,2013-06-12 21:09:00,
2013-06-12 16:14:00,80.8,42.7,28.91,East,87,2.7,3.6,26,0.00,,SKC,0.00,VWS V14.01,2013-06-12 21:14:00,
2013-06-12 16:19:00,81.1,45.9,28.91,NE,51,0.0,0.0,29,0.00,,SKC,0.00,VWS V14.01,2013-06-12 21:19:00,
2013-06-12 16:24:00,81.3,41.1,28.91,ENE,74,2.7,3.6,24,0.00,,SKC,0.00,VWS V14.01,2013-06-12 21:24:00,
2013-06-12 16:29:00,81.0,38.6,28.88,East,80,0.0,2.2,22,0.00,,SKC,0.00,VWS V14.01,2013-06-12 21:29:00,
2013-06-12 16:34:00,80.6,38.3,28.88,East,80,0.0,0.0,22,0.00,,SKC,0.00,VWS V14.01,2013-06-12 21:34:00,
2013-06-12 16:39:00,80.4,38.1,28.88,North,10,2.2,2.2,22,0.00,,SKC,0.00,VWS V14.01,2013-06-12 21:39:00,
2013-06-12 16:44:00,80.4,38.1,28.91,NE,54,2.2,2.7,22,0.00,,SKC,0.00,VWS V14.01,2013-06-12 21:44:00,
2013-06-12 16:49:00,80.2,38.0,28.91,NE,49,2.7,2.7,22,0.00,,SKC,0.00,VWS V14.01,2013-06-12 21:49:00,
2013-06-12 16:54:00,79.7,36.3,28.91,ENE,57,0.0,2.2,21,0.00,,SKC,0.00,VWS V14.01,2013-06-12 21:54:00,
2013-06-12 16:59:00,79.9,38.8,28.88,NE,35,2.7,2.7,23,0.00,,SKC,0.00,VWS V14.01,2013-06-12 21:59:00,
2013-06-12 17:04:00,79.9,37.7,28.88,NE,35,2.7,2.7,22,0.00,,SKC,0.00,VWS V14.01,2013-06-12 22:04:00,
2013-06-12 17:09:00,79.3,37.2,28.88,NE,35,0.0,2.2,22,0.00,,SKC,0.00,VWS V14.01,2013-06-12 22:09:00,
2013-06-12 17:14:00,79.0,38.1,28.88,NE,35,0.0,0.0,23,0.00,,SKC,0.00,VWS V14.01,2013-06-12 22:14:00,
2013-06-12 17:19:00,79.0,40.2,28.88,NE,35,0.0,0.0,25,0.00,,SKC,0.00,VWS V14.01,2013-06-12 22:19:00,
2013-06-12 17:24:00,79.0,44.9,28.88,NE,35,0.0,0.0,30,0.00,,SKC,0.00,VWS V14.01,2013-06-12 22:24:00,
2013-06-12 17:29:00,78.8,44.8,28.88,NE,35,0.0,0.0,30,0.00,,SKC,0.00,VWS V14.01,2013-06-12 22:29:00,
2013-06-12 17:34:00,78.3,38.5,28.88,NE,42,0.0,2.7,24,0.00,,SKC,0.00,VWS V14.01,2013-06-12 22:34:00,
2013-06-12 17:39:00,77.2,37.6,28.88,NE,44,0.0,0.0,24,0.00,,SKC,0.00,VWS V14.01,2013-06-12 22:39:00,
2013-06-12 17:44:00,77.0,39.5,28.85,NE,44,0.0,0.0,26,0.00,,SKC,0.00,VWS V14.01,2013-06-12 22:44:00,
2013-06-12 17:49:00,76.6,39.2,28.85,NE,48,0.0,0.0,26,0.00,,SKC,0.00,VWS V14.01,2013-06-12 22:49:00,
2013-06-12 17:54:00,76.3,40.8,28.85,NE,48,0.0,0.0,28,0.00,,SKC,0.00,VWS V14.01,2013-06-12 22:54:00,
2013-06-12 17:59:00,75.7,41.3,28.85,NE,46,0.0,0.0,29,0.00,,SKC,0.00,VWS V14.01,2013-06-12 22:59:00,
2013-06-12 18:04:00,75.6,41.1,28.85,NE,48,0.0,2.7,29,0.00,,SKC,0.00,VWS V14.01,2013-06-12 23:04:00,
2013-06-12 18:09:00,75.0,41.5,28.85,SE,127,0.0,0.0,30,0.00,,SKC,0.00,VWS V14.01,2013-06-12 23:09:00,
2013-06-12 18:14:00,75.0,42.4,28.85,SE,127,0.0,0.0,31,0.00,,SKC,0.00,VWS V14.01,2013-06-12 23:14:00,
2013-06-12 18:19:00,75.0,42.4,28.85,SE,126,0.0,0.0,31,0.00,,SKC,0.00,VWS V14.01,2013-06-12 23:19:00,
2013-06-12 18:24:00,74.8,42.2,28.85,SE,126,0.0,0.0,31,0.00,,SKC,0.00,VWS V14.01,2013-06-12 23:24:00,
2013-06-12 18:29:00,74.5,42.7,28.85,ESE,113,0.0,0.0,32,0.00,,SKC,0.00,VWS V14.01,2013-06-12 23:29:00,
2013-06-12 18:34:00,74.7,44.5,28.85,ESE,109,0.0,2.7,34,0.00,,SKC,0.00,VWS V14.01,2013-06-12 23:34:00,
2013-06-12 18:39:00,74.5,47.2,28.85,East,100,0.0,2.7,38,0.00,,SKC,0.00,VWS V14.01,2013-06-12 23:39:00,
2013-06-12 18:44:00,74.3,49.1,28.82,East,96,0.0,2.7,41,0.00,,SKC,0.00,VWS V14.01,2013-06-12 23:44:00,
2013-06-12 18:49:00,74.3,51.6,28.82,WSW,249,0.0,0.0,45,0.00,,SKC,0.00,VWS V14.01,2013-06-12 23:49:00,
2013-06-12 18:54:00,74.5,53.5,28.82,WSW,249,0.0,0.0,48,0.00,,SKC,0.00,VWS V14.01,2013-06-12 23:54:00,
2013-06-12 18:59:00,74.7,54.8,28.85,SSE,162,0.0,0.0,50,0.00,,SKC,0.00,VWS V14.01,2013-06-12 23:59:00,
2013-06-12 19:04:00,74.7,58.9,28.85,South,177,0.0,2.7,58,0.00,,SKC,0.00,VWS V14.01,2013-06-13 00:04:00,
2013-06-12 19:09:00,74.5,60.2,28.85,South,177,0.0,0.0,61,0.00,,SKC,0.00,VWS V14.01,2013-06-13 00:09:00,
2013-06-12 19:14:00,74.3,61.3,28.82,South,177,2.2,2.2,64,0.00,,SKC,0.00,VWS V14.01,2013-06-13 00:14:00,
2013-06-12 19:19:00,74.3,61.8,28.82,South,177,0.0,0.0,65,0.00,,SKC,0.00,VWS V14.01,2013-06-13 00:19:00,
2013-06-12 19:24:00,74.8,65.6,28.82,SE,146,5.8,5.8,73,0.04,,SKC,0.04,VWS V14.01,2013-06-13 00:24:00,
2013-06-12 19:29:00,75.2,67.5,28.82,SSE,166,7.6,7.6,77,0.04,,SKC,0.04,VWS V14.01,2013-06-13 00:29:00,
2013-06-12 19:34:00,75.6,67.5,28.82,SSE,157,3.6,5.8,76,0.04,,SKC,0.04,VWS V14.01,2013-06-13 00:34:00,
2013-06-12 19:39:00,75.7,66.9,28.82,SSE,159,3.6,5.8,74,0.04,,SKC,0.04,VWS V14.01,2013-06-13 00:39:00,
2013-06-12 19:44:00,75.4,62.8,28.79,SSE,158,3.1,6.3,65,0.04,,SKC,0.04,VWS V14.01,2013-06-13 00:44:00,
2013-06-12 19:49:00,75.0,62.5,28.79,SSE,163,3.1,3.1,65,0.04,,SKC,0.04,VWS V14.01,2013-06-13 00:49:00,
2013-06-12 19:54:00,74.3,57.1,28.79,South,172,7.6,7.6,55,0.04,,SKC,0.04,VWS V14.01,2013-06-13 00:54:00,
2013-06-12 19:59:00,73.9,54.2,28.76,SE,146,8.1,8.1,50,0.04,,SKC,0.04,VWS V14.01,2013-06-13 00:59:00,
2013-06-12 20:04:00,73.0,50.5,28.76,South,178,2.7,3.1,45,0.04,,SKC,0.04,VWS V14.01,2013-06-13 01:04:00,
2013-06-12 20:09:00,72.3,50.4,28.76,South,170,0.0,5.8,46,0.04,,SKC,0.04,VWS V14.01,2013-06-13 01:09:00,
2013-06-12 20:14:00,72.3,51.0,28.76,South,171,3.1,3.1,47,0.04,,SKC,0.04,VWS V14.01,2013-06-13 01:14:00,
2013-06-12 20:19:00,72.3,54.2,28.76,South,171,2.7,3.6,53,0.04,,SKC,0.04,VWS V14.01,2013-06-13 01:19:00,
2013-06-12 20:24:00,71.8,54.3,28.76,WNW,285,3.1,3.1,54,0.04,,SKC,0.04,VWS V14.01,2013-06-13 01:24:00,
2013-06-12 20:29:00,71.4,53.4,28.85,South,178,6.3,6.3,53,0.04,,SKC,0.08,VWS V14.01,2013-06-13 01:29:00,
2013-06-12 20:34:00,70.7,57.5,28.85,South,173,5.8,5.8,63,0.04,,SKC,0.08,VWS V14.01,2013-06-13 01:34:00,
2013-06-12 20:39:00,70.2,57.9,28.85,SSE,159,2.7,4.0,65,0.04,,SKC,0.08,VWS V14.01,2013-06-13 01:39:00,
2013-06-12 20:44:00,70.0,58.5,28.76,SSE,162,2.7,4.0,67,0.04,,SKC,0.08,VWS V14.01,2013-06-13 01:44:00,
2013-06-12 20:49:00,70.0,59.8,28.76,SSE,164,3.1,3.1,70,0.04,,SKC,0.08,VWS V14.01,2013-06-13 01:49:00,
2013-06-12 20:54:00,69.6,59.4,28.76,South,178,3.6,4.0,70,0.04,,SKC,0.08,VWS V14.01,2013-06-13 01:54:00,
2013-06-12 20:59:00,69.4,59.6,28.76,SSE,166,3.1,3.6,71,0.04,,SKC,0.08,VWS V14.01,2013-06-13 01:59:00,
2013-06-12 21:04:00,69.4,59.2,28.76,South,179,2.7,2.7,70,0.04,,SKC,0.08,VWS V14.01,2013-06-13 02:04:00,
2013-06-12 21:09:00,69.6,60.2,28.76,SSE,160,3.6,3.6,72,0.04,,SKC,0.08,VWS V14.01,2013-06-13 02:09:00,
2013-06-12 21:14:00,69.6,61.3,28.82,SSE,154,2.7,3.1,75,0.04,,SKC,0.08,VWS V14.01,2013-06-13 02:14:00,
2013-06-12 21:19:00,69.4,61.5,28.82,South,186,0.0,3.6,76,0.04,,SKC,0.08,VWS V14.01,2013-06-13 02:19:00,
2013-06-12 21:24:00,69.4,61.2,28.82,SSW,209,0.0,2.7,75,0.04,,SKC,0.08,VWS V14.01,2013-06-13 02:24:00,
2013-06-12 21:29:00,69.6,61.3,28.82,SSW,209,0.0,0.0,75,0.04,,SKC,0.08,VWS V14.01,2013-06-13 02:29:00,
2013-06-12 21:34:00,68.5,57.2,28.82,NNE,19,13.2,15.4,67,0.00,,SKC,0.08,VWS V14.01,2013-06-13 02:34:00,
2013-06-12 21:39:00,68.0,49.2,28.82,North,5,13.2,14.1,51,0.00,,SKC,0.08,VWS V14.01,2013-06-13 02:39:00,
2013-06-12 21:44:00,67.8,49.6,28.79,North,9,11.0,11.0,52,0.00,,SKC,0.08,VWS V14.01,2013-06-13 02:44:00,
2013-06-12 21:49:00,67.3,48.5,28.79,NE,44,4.0,4.9,51,0.00,,SKC,0.08,VWS V14.01,2013-06-13 02:49:00,
2013-06-12 21:54:00,67.1,48.4,28.79,ENE,75,3.6,3.6,51,0.00,,SKC,0.08,VWS V14.01,2013-06-13 02:54:00,
2013-06-12 21:59:00,66.7,48.6,28.82,NNE,33,4.0,5.8,52,0.00,,SKC,0.08,VWS V14.01,2013-06-13 02:59:00,
2013-06-12 22:04:00,66.4,47.2,28.82,NE,44,6.3,6.3,50,0.00,,SKC,0.08,VWS V14.01,2013-06-13 03:04:00,
2013-06-12 22:09:00,65.8,47.2,28.82,NE,35,5.4,5.8,51,0.00,,SKC,0.08,VWS V14.01,2013-06-13 03:09:00,
2013-06-12 22:14:00,65.7,47.6,28.85,North,355,3.1,3.6,52,0.00,,SKC,0.08,VWS V14.01,2013-06-13 03:14:00,
2013-06-12 22:19:00,65.7,48.6,28.85,SE,141,2.2,2.7,54,0.00,,SKC,0.08,VWS V14.01,2013-06-13 03:19:00,
2013-06-12 22:24:00,65.7,49.1,28.85,East,100,2.2,2.7,55,0.00,,SKC,0.08,VWS V14.01,2013-06-13 03:24:00,
2013-06-12 22:29:00,65.7,49.6,28.85,SSE,151,2.2,2.2,56,0.00,,SKC,0.08,VWS V14.01,2013-06-13 03:29:00,
2013-06-12 22:34:00,65.7,50.0,28.85,North,9,3.6,3.6,57,0.00,,SKC,0.08,VWS V14.01,2013-06-13 03:34:00,
2013-06-12 22:39:00,65.7,50.0,28.85,ESE,103,0.0,3.1,57,0.00,,SKC,0.08,VWS V14.01,2013-06-13 03:39:00,
2013-06-12 22:44:00,65.7,50.5,28.85,ESE,118,2.7,3.6,58,0.00,,SKC,0.08,VWS V14.01,2013-06-13 03:44:00,
2013-06-12 22:49:00,65.7,51.0,28.85,ESE,105,3.6,3.6,59,0.00,,SKC,0.08,VWS V14.01,2013-06-13 03:49:00,
2013-06-12 22:54:00,65.5,51.7,28.85,North,2,3.1,4.9,61,0.00,,SKC,0.08,VWS V14.01,2013-06-13 03:54:00,
2013-06-12 22:59:00,65.5,52.6,28.79,SSW,213,3.6,3.6,63,0.00,,SKC,0.08,VWS V14.01,2013-06-13 03:59:00,
2013-06-12 23:01:00,65.5,52.6,28.79,West,267,3.6,3.6,63,0.00,,SKC,0.08,VWS V14.01,2013-06-13 04:01:00,
2013-06-12 23:06:00,65.3,52.4,28.79,SE,133,2.7,3.1,63,0.00,,SKC,0.08,VWS V14.01,2013-06-13 04:06:00,
2013-06-12 23:11:00,65.3,53.2,28.79,SSE,168,0.0,2.2,65,0.00,,SKC,0.08,VWS V14.01,2013-06-13 04:11:00,
2013-06-12 23:16:00,65.1,53.9,28.76,South,171,4.0,4.0,67,0.00,,SKC,0.08,VWS V14.01,2013-06-13 04:16:00,
2013-06-12 23:21:00,65.3,54.1,28.76,South,171,3.1,3.1,67,0.00,,SKC,0.08,VWS V14.01,2013-06-13 04:21:00,
2013-06-12 23:26:00,65.5,55.5,28.82,South,171,2.7,5.4,70,0.00,,SKC,0.08,VWS V14.01,2013-06-13 04:26:00,
2013-06-12 23:31:00,65.5,57.0,28.82,South,171,3.1,3.1,74,0.00,,SKC,0.08,VWS V14.01,2013-06-13 04:31:00,
2013-06-12 23:36:00,65.5,57.4,28.82,South,171,3.1,3.1,75,0.00,,SKC,0.08,VWS V14.01,2013-06-13 04:36:00,
2013-06-12 23:41:00,65.3,56.8,28.82,North,10,22.8,22.8,74,0.20,,SKC,0.28,VWS V14.01,2013-06-13 04:41:00,
2013-06-12 23:46:00,64.0,54.1,28.91,NE,42,12.8,15.4,70,0.28,,SKC,0.35,VWS V14.01,2013-06-13 04:46:00,
2013-06-12 23:51:00,63.9,54.3,28.91,ESE,121,0.0,2.2,71,0.31,,SKC,0.39,VWS V14.01,2013-06-13 04:51:00,
2013-06-12 23:56:00,63.9,54.7,28.91,SSE,165,4.0,4.0,72,0.39,,SKC,0.47,VWS V14.01,2013-06-13 04:56:00,